This is the latest recevied weather packets stored in our database for station/object DL4ABR-6. If no packets are shown the sender has not sent any weather packets the latest 10 day(s).
| Time | Temp. | Humidity | Pressure | Rain* | Wind** | Luminosity | Snow |
|---|---|---|---|---|---|---|---|
| 1778119525 | 7.78° C | 99% | 1006.4 hPa | 2.29 mm | - | - | - |
| 1778118720 | 7.78° C | 99% | 1006.1 hPa | 2.29 mm | - | - | - |
| 1778117915 | 7.78° C | 99% | 1006.1 hPa | 2.29 mm | - | - | - |
| 1778117125 | 7.78° C | 99% | 1006.1 hPa | 2.03 mm | - | - | - |
| 1778116400 | 8.33° C | 99% | 1005.8 hPa | 2.03 mm | - | - | - |
| 1778115567 | 8.33° C | 99% | 1005.9 hPa | 1.78 mm | - | - | - |
| 1778114785 | 8.33° C | 99% | 1005.8 hPa | 1.78 mm | - | - | - |
| 1778114020 | 8.89° C | 99% | 1005.7 hPa | 1.78 mm | - | - | - |
| 1778113155 | 8.89° C | 99% | 1005.7 hPa | 1.78 mm | - | - | - |
| 1778112410 | 8.89° C | 99% | 1005.4 hPa | 1.78 mm | - | - | - |
| 1778111670 | 8.89° C | 99% | 1005.6 hPa | 1.78 mm | - | - | - |
| 1778110825 | 8.89° C | 99% | 1005.4 hPa | 1.78 mm | - | - | - |
| 1778110005 | 8.89° C | 99% | 1005.5 hPa | 1.52 mm | - | - | - |
| 1778109115 | 8.89° C | 99% | 1005.1 hPa | 1.52 mm | - | - | - |
| 1778108360 | 8.89° C | 99% | 1005.6 hPa | 1.27 mm | - | - | - |
| 1778107535 | 8.89° C | 99% | 1005.3 hPa | 1.27 mm | - | - | - |
| 1778106805 | 8.89° C | 99% | 1005 hPa | 1.02 mm | - | - | - |
| 1778106070 | 8.89° C | 99% | 1005 hPa | 0.76 mm | - | - | - |
| 1778105270 | 8.89° C | 99% | 1005 hPa | 0.51 mm | - | - | - |
| 1778104525 | 8.89° C | 99% | 1005 hPa | 26.42 mm | - | - | - |
| 1778103750 | 8.89° C | 99% | 1004.9 hPa | 26.16 mm | - | - | - |
| 1778102915 | 8.89° C | 99% | 1005 hPa | 25.91 mm | - | - | - |
| 1778102185 | 8.89° C | 99% | 1004.8 hPa | 25.91 mm | - | - | - |
| 1778101456 | 8.89° C | 99% | 1004.6 hPa | 25.91 mm | - | - | - |
| 1778100679 | 8.89° C | 99% | 1004.5 hPa | 25.65 mm | - | - | - |
* Rain since midnight (hover to see other rain measurements)
** Current wind speed in m/s (hover to see current wind gust speed)